Weather Roundup
Issued by NWS

Home | Current Version | Previous Version | Text Only | Print | Product List | Glossary On
Versions: 1 2 3 4 5 6 7 8 9 10 11 12 13 14 15 16 17 18 19 20 21 22 23 24 25 26 27 28 29 30 31 32 33 34 35 36 37 38 39 40 41 42 43 44 45 46 47 48 49 50
000
NZUS93 KARX 280410
HRRWXR

CURRENT HOURLY OBSERVATIONS ACROSS
MUCH OF THE UPPER MISSISSIPPI VALLEY
NATIONAL WEATHER SERVICE LA CROSSE WI
1100 PM CDT TUE JUN 27 2017


...SOUTHEAST MINNESOTA...


CITY           SKY/WX    TMP DP  RH WIND       PRES   REMARKS
ROCHESTER      CLOUDY    62  47  57 S12       29.89F
ROCHESTER/MAYO FAIR      65  45  48 SE14G20   29.87F
WINONA         PTCLDY    61  48  63 SE7       29.91F
AUSTIN         CLOUDY    64  46  52 SE8       29.88F
ALBERT LEA     CLOUDY    68  46  45 S10       29.87R
DODGE CENTER   CLOUDY    64  45  48 SE12      29.86F
PRESTON        CLOUDY    62  45  54 S8        29.93S
OWATONNA       PTCLDY    70  46  43 SE12G18   29.85R
FARIBAULT      CLOUDY    70  46  43 S15       29.84R
$$

...ELSEWHERE IN MINNESOTA...


CITY           SKY/WX    TMP DP  RH WIND       PRES   REMARKS
MINNEAPOLIS    CLOUDY    71  44  37 S13       29.84R
INTNL FALLS    CLOUDY    55  46  71 CALM      29.75F
DULUTH         CLEAR     57  47  69 SE5       29.83F
RED WING       PTCLDY    66  43  42 SE9       29.84S
REDWOOD FALLS  CLOUDY    71  48  43 SE15      29.76S
MANKATO        CLOUDY    69  48  47 S14G21    29.83R
WORTHINGTON    CLOUDY    72  60  66 SE16G23   29.75F
FAIRMONT       CLOUDY    69  53  56 SE16      29.81S
$$

...SOUTHWEST WISCONSIN...


CITY           SKY/WX    TMP DP  RH WIND       PRES   REMARKS
LA CROSSE      CLEAR     66  50  56 SE7       29.93S
PRAIRIE DU CHI CLEAR     61  47  59 E5        29.96R
BOSCOBEL       CLEAR     57  52  83 CALM      29.97R
LONE ROCK      CLEAR     58  50  75 CALM      29.98R
PLATTEVILLE    CLEAR     59  50  71 SE8       29.99S
FORT MC COY    CLEAR     53  50  90 CALM      29.96F
CAMP DOUGLAS   PTCLDY    52  48  87 SE5       29.96R
MAUSTON-NEW LI CLEAR     55  51  86 CALM      29.97R
VIROQUA        FAIR      61  48  64 S6        29.97S
WIS DELLS      CLEAR     58  47  67 S5        29.98S
$$

...ELSEWHERE IN WISCONSIN...


CITY           SKY/WX    TMP DP  RH WIND       PRES   REMARKS
MILWAUKEE      PTCLDY    65  49  56 S9        30.01S
MADISON        CLEAR     64  49  57 S7        29.99R
GREEN BAY      CLEAR     62  54  74 SW5       29.98R
EAU CLAIRE     CLEAR     63  48  58 SE10      29.88F
BLACK RVR FLS  FAIR      49  49 100 CALM      29.94F
MEDFORD        CLEAR     56  48  76 S6        29.94F
WAUSAU           N/A    N/A N/A N/A MISG      29.95R
WIS RAPIDS     CLEAR     57  50  77 S3        29.98R
MARSHFIELD     CLEAR     56  47  71 S5        29.95S
RICE LAKE      PTCLDY    61  47  60 SE7       29.89S
$$

...NORTHEAST IOWA...


CITY           SKY/WX    TMP DP  RH WIND       PRES   REMARKS
WATERLOO       CLEAR     65  48  54 SE12      29.90S
DUBUQUE        CLEAR     60  47  61 S10       29.98R
DECORAH        CLOUDY    61  48  63 S7        29.94S
MASON CITY     PTCLDY    64  49  57 SE10      29.89F
CHARLES CITY   PTCLDY    63  46  55 SE9       29.92S
OELWEIN        PTCLDY    59  48  67 SE9       29.95R
$$

...ELSEWHERE IN IOWA...


CITY           SKY/WX    TMP DP  RH WIND       PRES   REMARKS
DES MOINES     MOCLDY    72  56  57 SE10      29.88F
IOWA CITY      CLEAR     63  51  65 SE6       29.97R
FORT DODGE     CLOUDY    72  54  53 SE7       29.87R
MARSHALLTOWN   PTCLDY    67  52  58 SE13      29.89F
CEDAR RAPIDS   CLEAR     64  51  62 S6        29.95R
$$

...NORTHERN ILLINOIS...


CITY           SKY/WX    TMP DP  RH WIND       PRES   REMARKS
CHICAGO-OHARE  PTCLDY    67  45  45 S9        30.03S
CHICAGO-MIDWAY PTCLDY    69  46  43 S6        30.04S
MOLINE         CLEAR     62  50  64 S7        29.99R
ROCKFORD       PTCLDY    62  46  55 S7        30.02F
PEORIA         CLEAR     65  49  56 SE5       30.02S
$$

NOTE: "FAIR" INDICATES FEW OR NO CLOUDS BELOW 12,000 FEET WITH NO
SIGNIFICANT WEATHER AND/OR OBSTRUCTIONS TO VISIBILITY. WIND
SPEEDS ARE IN MILES-PER-HOUR.




USA.gov is the U.S. government's official web portal to all federal, state and local government web resources and services.